Home   Weather   Messina   Past weeks

Flag for Italy Past Weather in Messina, Italy — Yesterday and Last 2 Weeks

Now
90 °F

Sunny.


Feels Like: 90 °F
Forecast: 78 / 89 °F
Wind: 14 mph from North

Location: Reggio Calabria

Current Time: Aug 18, 2017 at 1:11:49 pm

Latest Report: Aug 18, 2017 at 11:50 am


Visibility: 10 mi

Pressure: 30.01 "Hg

Humidity: 38%

Dew Point: 61 °F

Location of MessinaLocation

Past Weather in Messina — Graph

°F

Messina Temperature Yesterday

Maximum temperature yesterday: 91 °F (at 2:50 pm)
Minimum temperature yesterday: 79 °F (at 5:50 am)
Average temperature yesterday: 85 °F

High & Low Weather Summary for the Past Weeks

 TemperatureHumidityPressure
High102 °F (Aug 5, 1:50 pm)79% (Aug 8, 6:50 pm)30.09 "Hg (Aug 8, 6:50 pm)
Low73 °F (Aug 14, 5:50 am)13% (Aug 4, 11:50 am)29.83 "Hg (Aug 5, 5:50 pm)
Average87 °F46%29.95 "Hg
* Reported Aug 3 11:50 am — Aug 18 11:50 am, Messina. Weather by CustomWeather, © 2017

Note: Actual official high and low records may vary slightly from our data, if they occured in-between our weather recording intervals... More about our weather records

Advertising

Messina Weather History for the Previous 24 Hours

Scroll right to see more
 ConditionsComfort  
Time TempWeatherWind HumidityBarometerVisibility
11:50 am
Fri, Aug 18
90 °FSunny.14 mph38%30.01 "Hg10 mi
10:50 am88 °FSunny.14 mph43%30.01 "Hg10 mi
9:50 am84 °FSunny.14 mph62%30.01 "Hg10 mi
8:50 am82 °FSunny.14 mph66%30.01 "Hg10 mi
7:50 am81 °FSunny.10 mph70%29.98 "Hg10 mi
6:50 am79 °FSunny.12 mph70%29.98 "Hg10 mi
6:00 am79 °FClear.12 mph70%29.98 "Hg10 mi
11:50 pm
Thu, Aug 17
81 °FClear.12 mph62%29.98 "Hg10 mi
10:50 pm81 °FClear.12 mph62%29.98 "Hg10 mi
9:50 pm81 °FClear.10 mph58%29.98 "Hg10 mi
8:50 pm82 °FClear.14 mph55%29.98 "Hg10 mi
7:50 pm82 °FClear.12 mph51%29.98 "Hg10 mi
6:50 pm84 °FSunny.14 mph55%29.95 "Hg10 mi
5:50 pm86 °FSunny.16 mph49%29.95 "Hg10 mi
4:50 pm90 °FSunny.15 mph36%29.95 "Hg10 mi
3:50 pm91 °FSunny.14 mph34%29.95 "Hg10 mi
2:50 pm91 °FSunny.13 mph38%29.98 "Hg10 mi
1:50 pm90 °FSunny.15 mph41%29.98 "Hg10 mi
Weather by CustomWeather, © 2017

See weather overviewHow to use our weather pages